Location: Unspecified
(17.6330°N, 0.0000°E)
Time: 10:18:20
(UTC+00:00)

Courier 1B Rocket - Pass Details

Date: 28 June 2019
Orbit: 920 x 1202 km, 28.2° (Epoch: 16 July)

Event Time Altitude Azimuth Distance (km) Brightness Sun altitude
Exits shadow 03:21:08 18° 301° (WNW) 2,453 6.9 -26.7°
Maximum altitude 03:25:51 35° 356° (N) 1,667 6.4 -25.8°
Drops below altitude 10° 03:32:05 10° 60° (ENE) 2,816 8.5 -24.6°
Sets 03:34:58 0° 69° (ENE) 3,723 9.3 -24.1°
